Regional Weather Roundup
Issued by NWS San Angelo, TX

Home | Current Version | Previous Version | Text Only | Print | Product List | Glossary On
Versions: 1 2 3 4 5 6 7 8 9 10 11 12 13 14 15 16 17 18 19 20 21 22 23 24 25 26 27 28 29 30 31 32 33 34 35 36 37 38 39 40 41 42 43 44 45 46 47 48 49 50
167
ASUS44 KSJT 280710
RWRSJT
WEST CENTRAL TEXAS REGIONAL WEATHER ROUNDUP
NATIONAL WEATHER SERVICE SAN ANGELO TX
200 AM CDT TUE MAR 28 2017

NOTE: "FAIR" INDICATES FEW OR NO CLOUDS BELOW 12,000 FEET WITH NO
SIGNIFICANT WEATHER AND/OR OBSTRUCTIONS TO VISIBILITY.

TXZ049-054-064>066-071>073-076>078-098-099-113-114-127-128-139-140-
154-155-168>170-280800
...LOCATIONS ACROSS WEST CENTRAL TEXAS...

CITY           SKY/WX    TMP DP  RH WIND       PRES   REMARKS
SAN ANGELO     MOCLDY    61  46  57 E3        29.82F
ABILENE        CLEAR     61  55  81 SE12      29.84F
DYESS AFB      CLEAR     63  55  73 S13       29.82F
JUNCTION       CLOUDY    68  65  90 E5        29.84F
SWEETWATER     CLEAR     64  55  72 SE9       29.85F
BROWNWOOD      CLOUDY    64  59  82 SE6       29.86S
COLEMAN        SUNNY     62  54  74 CALM      29.86S
SONORA         CLEAR     70  64  83 S8        29.86F
OZONA            N/A     70  63  78 MISG      29.83F
BRADY          NOT AVBL
$$

TEXAS PANHANDLE/OKLAHOMA PANHANDLE

CITY           SKY/WX    TMP DP  RH WIND       PRES   REMARKS
AMARILLO       PTCLDY    52  43  71 SE21G29   29.87F
BORGER         CLEAR     54  44  69 SE20G26   29.86F
CANADIAN       CLEAR     51  46  82 E10       29.91S
DALHART        CLOUDY    53  42  66 SE16G24   29.86S
DUMAS          SUNNY     51  41  69 SE18      29.86S
GUYMON         NOT AVBL
HEREFORD       CLOUDY    52  42  70 SE16G22   29.86F
PAMPA          SUNNY     51  45  80 SE17      29.89F
PERRYTON       CLEAR     51  43  76 SE14      29.88F
$$

SOUTHERN PANHANDLE/SOUTH PLAINS/ROLLING PLAINS

CITY           SKY/WX    TMP DP  RH WIND       PRES   REMARKS
LUBBOCK        CLOUDY    58  44  60 SE17      29.84S
SNYDER         CLEAR     57  45  64 E8        29.83F
CHILDRESS      PTCLDY    56  45  66 E9        29.89S
SEMINOLE       SUNNY     56  39  52 SE7       29.82F
$$

PERMIAN BASIN

CITY           SKY/WX    TMP DP  RH WIND       PRES   REMARKS
MIDLAND        CLEAR     63  40  42 SE10      29.79F
ODESSA         CLEAR     63  39  41 SE12      29.80F
WINK           CLEAR     66  35  31 SE15      29.73F
$$

FAR WEST/SOUTHWEST MOUNTAINS/TRANS PECOS

CITY           SKY/WX    TMP DP  RH WIND       PRES   REMARKS
ALPINE         SUNNY     65  44  47 S8        29.88F
DRYDEN           N/A     70  64  81 E13       29.75F
EL PASO        PTCLDY    67  27  22 NW6       29.80F
FORT STOCKTON  CLEAR     68  55  63 SE16G22   29.75F
GUADALUPE PASS CLEAR     60  25  26 NE12      29.88F
MARFA          CLEAR     45  21  38 NW7       29.87S
PECOS          SUNNY     59  34  38 E7        29.73F
$$

DALLAS/FORT WORTH METROPLEX

CITY           SKY/WX    TMP DP  RH WIND       PRES   REMARKS
DFW AIRPORT    CLEAR     61  55  81 E5        29.86F
FTW MEACHAM    CLEAR     63  53  70 E7        29.86F
DAL-EXECUTIVE  CLEAR     59  56  89 E6        29.87F
GRAND PRAIRIE  CLEAR     61  54  76 E5        29.89S
ADDISON        CLEAR     62  55  77 E6        29.89F
MESQUITE       SUNNY     57  55  91 CALM      29.89S
LANCASTER      SUNNY     56  54  92 E3        29.89F
$$

NORTH CENTRAL TEXAS

CITY           SKY/WX    TMP DP  RH WIND       PRES   REMARKS
SHRMAN/DENISON SUNNY     55  53  94 E6        29.91F
GAINESVILLE    CLEAR     55  52  89 NE3       29.91S
BRIDGEPORT     MOSUNNY   57  54  89 CALM      29.90S
DENTON         CLEAR     59  55  87 E5        29.88S
WAXAHACHIE     MOSUNNY   59  56  89 E3        29.90S
GRANBURY       SUNNY     63  54  74 E6        29.88S
$$

WESTERN NORTH TEXAS

CITY           SKY/WX    TMP DP  RH WIND       PRES   REMARKS
WICHITA FALLS  CLEAR     52  47  83 NE8       29.88F
VERNON         SUNNY     55  43  64 E7        29.90R
BRECKENRIDGE   SUNNY     63  51  65 SE9       29.84F
COMANCHE       PTCLDY    60  56  87 SE5       29.87S
$$

CENTRAL AND SOUTH CENTRAL TEXAS

CITY           SKY/WX    TMP DP  RH WIND       PRES   REMARKS
AUSTIN/BERGSTM CLOUDY    71  68  90 S9        29.85S
WACO           CLOUDY    65  59  81 E7        29.87S
HILLSBORO      CLOUDY    63  57  82 E12       29.87F
TEMPLE         CLOUDY    71  68  90 SE7       29.87S
KILLEEN-GRAY   CLOUDY    68  66  94 SE6       29.85F
FORT HOOD      PTCLDY    68  66  93 SE7       29.83F
GEORGETOWN     MOCLDY    72  64  78 S6        29.86S
LAGO VISTA     CLOUDY    71  67  89 S3        29.88S
SAN MARCOS     CLOUDY    70  66  88 S9        29.86S
NEW BRAUNFELS  CLOUDY    71  67  87 S10       29.84S
RANDOLPH AFB   CLOUDY    70  70 100 SE7       29.84F
SAN ANTONIO    CLOUDY    71  66  84 SE10      29.85F
STINSON        CLOUDY    72  67  84 SE6       29.82F
PLEASANTON     NOT AVBL
LA GRANGE      CLOUDY    71  70  97 SE3       29.84S FOG
GIDDINGS       CLOUDY    69  67  93 S5        29.87S
$$

EAST TEXAS

CITY           SKY/WX    TMP DP  RH WIND       PRES   REMARKS
PARIS          CLEAR     55  50  82 NE6       29.92S
CLARKSVILLE    NOT AVBL
TYLER          CLOUDY    65  59  81 E7        29.90R
LONGVIEW       CLOUDY    64  63  96 CALM      29.90S
PALESTINE      PTSUNNY   70  68  94 SE3       29.90S
NACOGDOCHES    CLOUDY    68  64  88 S3        29.88S
$$

TEXAS HILL COUNTRY AND EDWARDS PLATEAU

CITY           SKY/WX    TMP DP  RH WIND       PRES   REMARKS
LLANO          RAIN      68  64  88 SE3       29.88F
HORSESHOE BAY  CLOUDY    71  66  85 S3        29.86S HAZE
KERRVILLE      CLOUDY    72  69  91 S9        29.86F
FREDERICKSBRG  CLOUDY    69  64  85 SE6       29.86F
ROCKSPRINGS    CLOUDY    68  66  94 S13       29.86F FOG
HONDO          CLOUDY    72  68  87 SE9       29.83F
UVALDE         MOSUNNY   69  67  94 E6        29.82F
DEL RIO        MOCLDY    71  67  87 E8        29.77F
$$

SOUTHEAST TEXAS

CITY           SKY/WX    TMP DP  RH WIND       PRES   REMARKS
COLLEGE STN    MOCLDY    67  66  97 E6        29.87S
CALDWELL       NOT AVBL
CROCKETT       SUNNY     68  66  94 CALM      29.91F
BRENHAM        CLOUDY    68  68  98 SE3       29.87F FOG
HUNTSVILLE     MOCLDY    70  66  87 S6        29.88F
CONROE         CLOUDY    67  66  97 E3        29.89S FOG
HOUSTON BUSH   MOCLDY    68  67  96 SE3       29.88S
HOUSTON HOBBY  MOCLDY    72  70  93 S5        29.87F
PERLAND        CLOUDY    75  71  87 SE7       29.88F
WHARTON        MOSUNNY   69  68  96 SE5       29.86F FOG
$$

THE UPPER TEXAS COAST

CITY           SKY/WX    TMP DP  RH WIND       PRES   REMARKS
ORANGE         CLOUDY    73  72  95 S9        29.92S
PORT ARTHUR    CLOUDY    72  70  93 S7        29.90S
GALVESTON      CLOUDY    75  73  93 SE9       29.89F
ANGLETON       CLOUDY    75  72  90 S13       29.87F
BAY CITY       CLOUDY    74  73  94 SE8       29.86F
$$

TEXAS COASTAL BEND, RIO GRANDE PLAINS DEEP SOUTH TEXAS

CITY           SKY/WX    TMP DP  RH WIND       PRES   REMARKS
VICTORIA       CLOUDY    71  69  93 E6        29.84F FOG
BEEVILLE       CLOUDY   N/A N/A N/A SE10      29.82S
ROCKPORT       CLOUDY    74  72  93 SE13G21   29.81F FOG
PORT ARANSAS   CLOUDY    73  72  97 S10       29.82F FOG
PORT LAVACA    CLOUDY    74  73  97 S10G18    29.84F
CORPUS CHRISTI CLOUDY    74  73  97 SE18      29.81F
KINGSVILLE NAS CLOUDY    73  73 100 SE16      29.80F
COTULLA        PTCLDY    71  68  90 SE7       29.79F
LAREDO         CLEAR     73  69  87 SE10      29.77F
BROWNSVILLE    CLOUDY    75  73  93 SE12      29.82F
PORT ISABEL    MOCLDY    76  73  91 S13       29.81F
HEBBRONVILLE   CLOUDY    71  68  92 S12       29.81F
MCALLEN        CLOUDY    77  72  84 S13       29.80F
WESLACO        CLOUDY    74  72  92 S9        29.80S
FALFURRIAS     CLOUDY    72  71  96 SE9       29.80F
EDINBURG       CLOUDY    77  72  83 SE13G18   29.80F
$$




USA.gov is the U.S. government's official web portal to all federal, state and local government web resources and services.